Location: Banksville Park
(38.5557°N, 75.1182°W)
Time: 16:43:12
(UTC+00:00)

IRS-1A Rocket - Pass Details

Date: 19 September 2020
Orbit: 851 x 931 km, 99.2° (Epoch: 31 October)

Event Time Altitude Azimuth Distance (km) Brightness Sun altitude
Exits shadow 00:55:27 23° 168° (SSE) 1,876 5.7 -22.3°
Maximum altitude 00:59:21 84° 255° (WSW) 939 4.4 -23.0°
Drops below altitude 10° 01:05:16 10° 345° (NNW) 2,629 7.2 -24.1°
Sets 01:07:41 0° 346° (NNW) 3,567 8.0 -24.5°
